Wind_Speed
9 8 9 10 11 12 12 12 12 13 12 11 10 9 8 7 6 6 7 6 5 7 6 5 3 3 5 7 7 8 8 8 9 10 9 9 9 10 11 12 12 14 14
12 10 9 8 11 11 12 12 12 11 10 9 9 8 6 5 6 6 6 5 7 7 4 3 4 5 6 8 8 8 9 8 8 9 8 8 8 9 11 11 11 12 11
12 10 8 8 10 10 10 11 11 11 10 9 8 7 6 6 7 6 6 5 7 8 3 4 5 6 6 6 6 6 6 6 7 7 6 6 6 8 8 12 12 12 12
14 11 7 8 9 10 10 9 9 9 9 8 7 7 6 6 6 5 5 5 8 7 3 4 4 5 4 4 5 6 6 6 5 6 7 6 5 7 10 11 12 14 11
15 12 8 9 9 9 9 8 9 9 8 7 6 6 5 4 5 5 5 6 6 6 3 4 3 3 3 3 5 6 6 7 6 5 5 5 6 6 9 11 11 8 7
14 13 9 9 8 8 7 6 7 8 7 7 6 5 5 4 5 4 4 6 7 6 3 5 4 2 1 2 4 5 6 7 7 4 3 2 3 4 9 10 7 5 6
16 14 13 11 10 9 8 7 6 5 7 7 7 6 5 6 5 5 5 5 7 7 5 6 6 5 3 3 5 6 6 6 6 4 3 1 0 3 6 7 8 9 8
9 11 10 9 10 9 10 10 8 7 6 7 6 9 9 8 7 6 6 6 7 8 7 7 10 9 5 4 6 7 8 7 6 5 3 0 1 3 4 7 8 8 6
7 5 5 4 11 11 9 12 11 10 10 8 6 7 7 9 8 7 7 7 8 8 9 9 11 12 7 5 6 9 10 10 8 7 5 2 2 3 6 6 6 6 6
6 4 4 4 4 4 3 2 7 10 9 10 9 9 9 8 8 10 9 9 10 10 10 11 11 13 11 8 7 9 12 13 12 9 7 5 4 4 7 9 9 8 7
5 6 6 6 6 7 8 7 5 6 9 10 10 10 10 9 9 10 11 12 12 12 12 11 12 14 13 11 9 9 13 15 15 13 9 8 6 3 8 11 9 8 9
4 5 5 6 7 6 5 6 9 9 8 7 8 8 11 13 13 13 12 13 14 14 14 14 14 15 16 15 12 11 12 15 17 18 14 12 9 6 11 13 10 6 6
3 2 2 1 3 6 6 4 4 4 5 6 6 7 8 8 11 13 16 14 14 15 16 16 16 17 20 18 15 13 12 14 18 20 18 14 13 10 8 18 13 11 7
5 5 5 5 5 4 5 4 2 1 1 2 3 5 7 8 9 10 10 10 12 14 16 17 18 19 20 20 19 16 14 15 18 20 20 17 14 13 11 19 17 14 12
8 11 13 13 12 12 9 7 5 2 1 3 6 8 9 10 10 11 11 10 10 11 13 14 17 20 21 21 23 22 19 17 18 21 22 20 16 15 11 19 19 16 13
12 14 15 14 15 14 12 10 8 6 5 4 4 7 10 12 13 14 14 13 13 14 15 15 18 17 20 23 29 29 27 20 19 21 24 22 18 17 15 18 23 22 19
13 12 12 10 10 7 6 4 4 6 7 8 9 10 11 12 13 14 14 14 13 13 13 14 15 19 21 16 20 20 24 24 23 25 24 23 19 19 18 17 21 25 20
10 9 7 5 4 4 6 9 12 13 14 14 14 15 16 18 19 18 18 17 17 15 14 14 13 14 17 19 23 18 18 17 22 18 19 24 25 22 23 22 25 24 17
9 6 3 0 4 8 11 14 17 18 18 19 19 19 18 18 20 22 23 22 21 20 18 16 15 14 14 15 19 20 21 21 21 23 29 31 26 25 27 23 24 26 20
7 4 2 5 8 12 16 19 20 21 21 20 20 20 20 20 21 22 23 23 24 23 22 20 17 16 15 13 13 15 19 21 23 20 23 29 31 28 28 26 26 23 20
6 4 5 8 11 16 20 23 25 25 24 23 23 22 21 20 20 22 23 24 24 24 23 23 20 17 17 15 15 14 18 19 24 27 31 33 31 28 30 30 29 24 22
6 6 7 10 14 18 21 23 25 28 28 27 25 23 20 18 18 19 21 22 23 25 24 24 23 21 18 19 18 20 18 22 25 27 27 32 30 30 31 31 29 27 24
8 7 8 11 14 17 20 22 24 24 24 24 22 19 16 15 16 17 18 19 21 23 26 25 23 22 20 19 22 17 11 15 17 26 26 29 31 29 36 38 32 22 22
8 7 9 12 14 17 21 23 24 24 23 22 23 22 19 16 17 21 20 19 19 21 22 22 24 24 25 22 22 26 26 12 9 10 20 27 25 26 37 40 27 24 24
6 7 9 12 15 19 22 23 22 21 20 22 22 22 20 18 18 18 22 22 21 21 22 22 24 25 26 28 25 28 32 33 26 18 10 13 20 29 26 28 23 25 31
5 6 10 14 16 19 21 20 19 20 22 23 23 23 22 22 22 21 24 25 24 23 22 23 25 27 25 28 31 28 32 33 32 31 26 21 19 18 24 27 32 26 26
Wind_Direction
173 166 160 170 165 160 154 148 146 141 141 148 152 151 146 145 144 145 143 154 149 144 126 120 111 104 112 118 114 102 109 111 112 108 103 102 114 123 125 130 127 117 114
169 169 158 159 162 160 158 154 152 152 152 152 156 166 171 167 160 154 159 155 151 145 116 102 97 109 108 116 119 116 106 107 113 112 112 106 112 125 126 126 131 124 119
163 171 165 153 162 168 159 160 160 159 157 158 161 166 169 165 164 162 169 173 168 158 136 114 108 116 121 128 135 136 133 118 111 119 117 118 117 127 139 134 135 133 131
171 167 166 162 164 170 173 169 163 167 167 167 166 167 161 168 171 167 170 170 173 169 158 147 123 115 122 144 156 158 152 149 137 118 106 112 137 142 141 135 139 137 142
169 175 172 160 157 181 189 182 185 181 176 175 176 177 186 183 178 180 181 181 181 186 191 179 154 136 140 164 169 166 156 147 144 130 113 108 94 168 163 149 159 148 143
164 166 168 166 167 165 173 196 207 203 198 196 196 204 214 211 203 199 195 196 196 205 207 210 215 187 183 205 196 182 170 168 174 159 110 113 103 114 175 188 202 190 171
159 164 168 165 171 177 182 182 184 181 205 217 227 223 220 223 219 227 224 218 210 211 215 222 219 218 226 241 221 208 189 174 172 179 148 95 14 175 141 147 153 150 153
159 176 172 184 183 187 195 198 200 208 201 204 220 237 241 237 236 237 242 239 233 228 231 240 233 225 223 256 238 223 213 192 188 184 185 80 171 219 200 202 205 204 209
127 133 147 164 194 196 208 213 211 210 215 231 235 238 239 239 251 249 244 248 251 249 250 253 243 233 231 259 247 229 224 210 206 201 204 222 295 275 215 195 176 173 166
175 178 187 184 183 201 227 202 209 222 226 232 238 241 244 249 256 261 262 261 260 258 259 255 246 233 241 251 252 236 229 223 217 217 220 232 267 298 194 188 182 175 165
211 213 225 232 236 234 236 237 230 226 233 237 240 247 249 251 260 262 265 263 265 265 261 259 247 238 240 248 253 246 236 231 224 219 226 237 254 293 192 194 195 204 223
222 232 241 241 239 239 239 233 233 239 243 242 243 249 255 253 258 266 267 266 263 262 260 258 253 247 244 247 253 255 248 236 231 223 226 233 239 240 219 206 207 190 212
216 215 188 202 212 219 212 200 203 221 245 252 250 249 258 263 263 266 271 272 266 263 263 262 258 249 244 247 251 256 256 245 235 229 225 232 237 244 257 219 209 182 198
121 106 96 96 103 124 162 176 164 216 253 272 281 270 269 271 274 275 276 280 279 270 268 262 259 257 256 257 252 251 253 249 238 230 222 227 238 245 272 215 213 202 200
116 103 98 95 95 98 103 105 97 76 354 292 279 283 284 285 285 283 283 282 284 281 275 270 266 261 257 254 254 252 247 244 241 234 223 225 239 243 260 218 218 223 214
121 113 104 101 95 92 92 89 82 68 47 11 323 294 283 281 280 279 279 280 283 283 279 272 261 265 265 263 251 250 235 231 234 234 224 226 236 239 249 232 233 221 220
130 121 114 104 94 86 71 41 6 337 322 313 303 294 288 284 281 278 277 278 279 280 281 280 274 258 253 269 267 274 256 258 231 229 220 226 236 240 246 242 224 228 229
140 130 118 94 64 19 350 334 327 319 314 311 306 300 289 279 276 273 272 272 271 272 276 283 285 278 272 254 256 264 254 247 242 235 220 212 229 236 243 245 233 241 229
145 140 130 19 315 316 319 321 323 322 318 316 313 308 299 284 273 270 268 267 266 266 265 270 278 283 280 273 259 254 251 250 230 234 225 229 228 228 240 238 232 235 234
161 179 245 296 304 312 316 317 316 315 313 311 308 306 302 293 282 274 269 264 262 262 261 262 268 277 276 267 263 256 239 232 233 237 227 222 228 239 241 234 229 224 240
187 223 280 300 309 312 313 316 316 318 315 312 309 306 300 293 286 279 273 267 263 261 259 258 260 264 265 255 244 243 234 233 243 255 249 236 234 239 235 238 228 234 243
213 252 283 298 305 309 313 317 317 316 313 309 309 305 302 297 292 284 277 271 263 260 256 254 254 256 260 250 236 240 245 253 252 250 243 235 237 242 242 236 233 232 222
220 248 277 295 308 315 316 316 314 311 308 306 305 302 293 292 296 296 288 279 270 264 258 252 248 249 252 254 236 230 234 236 247 247 238 235 238 244 246 242 229 222 230
223 261 292 307 311 314 318 319 320 321 319 314 308 305 297 288 288 296 290 282 279 270 265 254 250 245 246 252 236 236 236 236 232 239 244 244 238 244 244 243 219 233 225
236 274 293 310 320 321 324 322 319 317 317 310 308 302 297 289 284 289 289 285 278 277 266 257 251 245 242 246 240 234 239 240 248 252 249 248 243 245 255 236 242 255 232
242 285 309 318 323 325 328 326 316 314 312 307 303 301 299 292 283 280 279 276 272 271 268 263 256 249 247 245 246 245 237 238 241 239 251 258 258 253 249 249 253 237 231
Height
1512 1513 1514 1516 1517 1519 1520 1522 1523 1524 1525 1527 1528 1530 1531 1532 1533 1534 1535 1536 1537 1538 1539 1539 1539 1539 1539 1539 1540 1540 1540 1541 1542 1542 1543 1543 1544 1545 1545 1546 1548 1548 1549
1511 1514 1515 1516 1518 1519 1521 1523 1524 1526 1527 1528 1530 1531 1532 1533 1534 1535 1536 1537 1538 1539 1539 1540 1539 1539 1540 1540 1541 1542 1542 1543 1543 1544 1544 1545 1546 1546 1547 1547 1548 1550 1551
1511 1514 1516 1518 1520 1521 1522 1524 1525 1526 1528 1529 1530 1532 1533 1534 1534 1535 1536 1537 1538 1539 1540 1540 1540 1540 1541 1542 1542 1543 1543 1544 1545 1545 1546 1546 1547 1547 1548 1549 1550 1551 1552
1511 1513 1516 1517 1520 1521 1523 1524 1525 1527 1528 1530 1531 1532 1533 1534 1535 1536 1537 1537 1538 1540 1540 1541 1542 1541 1542 1542 1543 1544 1545 1545 1546 1546 1547 1547 1548 1549 1549 1550 1551 1552 1552
1511 1513 1516 1517 1519 1521 1523 1525 1526 1527 1528 1530 1531 1532 1533 1535 1535 1536 1537 1538 1539 1540 1541 1542 1542 1542 1542 1543 1544 1544 1545 1546 1547 1547 1548 1548 1549 1549 1550 1551 1552 1553 1554
1510 1514 1515 1517 1518 1520 1522 1524 1526 1527 1528 1530 1531 1532 1534 1534 1535 1536 1537 1538 1539 1540 1541 1542 1543 1543 1543 1543 1544 1545 1545 1546 1547 1547 1548 1549 1549 1550 1550 1552 1553 1554 1555
1511 1512 1515 1517 1518 1520 1522 1524 1525 1526 1527 1529 1531 1532 1533 1534 1535 1536 1537 1537 1538 1539 1541 1542 1542 1543 1543 1543 1544 1544 1545 1546 1547 1547 1548 1549 1550 1551 1551 1552 1553 1554 1555
1512 1513 1515 1516 1518 1519 1521 1523 1525 1526 1526 1527 1529 1531 1532 1533 1534 1535 1536 1537 1538 1538 1540 1541 1541 1542 1542 1543 1543 1544 1544 1545 1547 1547 1548 1548 1550 1551 1552 1553 1554 1555 1556
1513 1514 1515 1515 1516 1518 1519 1522 1521 1523 1526 1527 1528 1530 1531 1532 1533 1535 1535 1536 1537 1537 1538 1539 1540 1541 1541 1542 1543 1543 1544 1545 1546 1547 1548 1549 1549 1550 1551 1552 1553 1555 1555
1514 1515 1516 1516 1517 1517 1519 1520 1521 1522 1523 1525 1526 1528 1530 1531 1532 1533 1534 1535 1536 1536 1537 1538 1538 1539 1541 1542 1542 1543 1543 1544 1546 1547 1548 1549 1549 1550 1550 1551 1553 1554 1555
1513 1514 1515 1515 1516 1517 1518 1520 1521 1522 1523 1524 1525 1527 1528 1529 1530 1531 1532 1534 1534 1534 1535 1536 1537 1538 1539 1540 1541 1542 1542 1543 1545 1547 1548 1549 1549 1550 1550 1551 1552 1553 1555
1512 1513 1514 1515 1515 1515 1517 1519 1520 1521 1522 1523 1524 1526 1526 1527 1528 1529 1530 1531 1532 1532 1533 1534 1534 1536 1537 1538 1540 1540 1540 1542 1543 1545 1547 1548 1549 1549 1550 1551 1551 1552 1553
1512 1512 1512 1512 1513 1514 1516 1518 1519 1520 1521 1522 1523 1524 1525 1526 1527 1527 1528 1528 1529 1530 1530 1531 1532 1533 1534 1535 1537 1538 1538 1540 1541 1543 1545 1546 1548 1549 1549 1549 1550 1550 1552
1512 1512 1512 1513 1514 1515 1516 1517 1518 1520 1521 1521 1522 1523 1524 1525 1525 1526 1526 1526 1527 1527 1527 1527 1529 1530 1531 1533 1534 1535 1536 1537 1538 1540 1542 1545 1546 1547 1547 1547 1549 1549 1550
1513 1513 1513 1514 1516 1516 1517 1517 1518 1519 1520 1521 1521 1522 1522 1523 1523 1523 1524 1524 1524 1524 1524 1524 1525 1526 1528 1529 1530 1531 1532 1534 1536 1538 1539 1542 1544 1545 1546 1546 1546 1548 1548
1513 1514 1515 1517 1518 1519 1519 1519 1519 1521 1521 1521 1520 1521 1520 1520 1520 1521 1521 1521 1521 1521 1521 1521 1522 1522 1523 1524 1524 1525 1525 1528 1531 1535 1537 1540 1542 1543 1544 1544 1544 1545 1545
1514 1516 1517 1518 1518 1520 1520 1520 1520 1520 1520 1520 1519 1519 1518 1518 1518 1517 1517 1518 1518 1517 1518 1518 1518 1518 1519 1520 1521 1523 1522 1524 1526 1527 1532 1536 1540 1542 1542 1543 1542 1542 1543
1515 1516 1517 1518 1518 1519 1519 1519 1518 1517 1517 1516 1515 1515 1514 1514 1514 1514 1514 1514 1514 1514 1514 1515 1515 1515 1515 1515 1517 1519 1520 1521 1523 1524 1527 1529 1533 1535 1538 1539 1539 1540 1541
1515 1516 1517 1517 1518 1517 1516 1516 1516 1515 1514 1512 1511 1511 1510 1509 1509 1509 1509 1510 1509 1510 1511 1511 1512 1512 1512 1512 1512 1514 1515 1516 1519 1521 1523 1526 1530 1529 1532 1533 1535 1536 1538
1514 1515 1516 1516 1516 1516 1515 1514 1513 1512 1511 1509 1508 1507 1505 1504 1503 1503 1504 1504 1504 1505 1506 1507 1508 1509 1509 1509 1509 1510 1511 1512 1515 1517 1518 1521 1524 1526 1528 1529 1531 1532 1534
1513 1514 1515 1514 1514 1513 1512 1510 1508 1507 1506 1505 1503 1502 1501 1500 1499 1498 1498 1498 1499 1500 1502 1502 1503 1504 1505 1506 1507 1508 1509 1510 1512 1513 1515 1517 1519 1521 1524 1526 1527 1528 1529
1512 1512 1513 1513 1512 1511 1510 1508 1505 1502 1500 1499 1498 1497 1495 1494 1494 1493 1492 1492 1493 1493 1495 1497 1498 1499 1501 1502 1503 1505 1505 1506 1505 1506 1508 1510 1514 1517 1519 1521 1522 1524 1526
1510 1511 1511 1511 1510 1509 1507 1504 1502 1499 1497 1494 1493 1492 1491 1490 1489 1488 1488 1487 1487 1487 1488 1490 1492 1493 1495 1497 1499 1502 1502 1500 1501 1502 1504 1506 1509 1512 1514 1515 1516 1520 1522
1508 1509 1508 1508 1508 1506 1503 1501 1497 1494 1491 1490 1489 1488 1487 1486 1485 1484 1483 1483 1482 1482 1482 1484 1486 1488 1490 1492 1494 1495 1497 1497 1497 1498 1499 1501 1503 1506 1508 1512 1509 1514 1516
1506 1506 1506 1505 1504 1502 1500 1497 1494 1491 1488 1486 1486 1484 1483 1482 1481 1480 1479 1478 1478 1477 1478 1479 1480 1481 1483 1485 1487 1489 1491 1492 1494 1496 1496 1497 1498 1501 1504 1505 1510 1512 1512
1504 1504 1503 1502 1501 1499 1497 1494 1491 1487 1485 1484 1482 1480 1478 1476 1476 1475 1474 1473 1473 1472 1473 1473 1475 1476 1477 1478 1480 1482 1484 1486 1488 1492 1495 1494 1496 1498 1502 1504 1505 1507 1508